Regional Weather Roundup
Issued by NWS Raleigh/Durham, NC

Home | Current Version | Previous Version | Text Only | Print | Product List | Glossary On
Versions: 1 2 3 4 5 6 7 8 9 10 11 12 13 14 15 16 17 18 19 20 21 22 23 24 25 26 27
000
ASUS42 KRAH 230610
RWRRAH
NORTH CAROLINA WEATHER ROUNDUP
NATIONAL WEATHER SERVICE RALEIGH NC
200 AM EDT WED APR 23 2014

NOTE: "FAIR" INDICATES FEW OR NO CLOUDS BELOW 12,000 FEET WITH NO
SIGNIFICANT WEATHER AND/OR OBSTRUCTIONS TO VISIBILITY.

NCZ001-053-055-056-065-067-230700-
WESTERN NORTH CAROLINA

CITY           SKY/WX    TMP DP  RH WIND       PRES   REMARKS
ASHEVILLE      FAIR      57  53  86 N7        29.84F
JEFFERSON      FAIR      54  37  52 NW12G22   29.82S
MORGANTON      FAIR      52  51  97 CALM      29.82S
HICKORY        FAIR      60  51  72 CALM      29.77F
RUTHERFORDTON  FAIR      53  52  99 CALM      29.79F FOG
MOUNT AIRY     FAIR      61  45  56 W5        29.75S
BOONE          FAIR      55  42  63 NW14G22   29.83S
$$

NCZ021-022-025-041-071-084-088-230700-
CENTRAL NORTH CAROLINA

CITY           SKY/WX    TMP DP  RH WIND       PRES   REMARKS
CHARLOTTE      FAIR      55  54  96 CALM      29.77F
GREENSBORO     FAIR      59  53  80 W10       29.73S
WINSTON-SALEM  FAIR      61  51  70 SW5       29.76S
RALEIGH-DURHAM FAIR      61  55  81 W5        29.71R
FORT BRAGG     FAIR      63  58  85 W7        29.71F
FAYETTEVILLE   FAIR      61  57  87 W7        29.71F
CHAPEL HILL    FAIR      61  56  83 W5        29.72S
BURLINGTON     FAIR      58  54  86 W5        29.72S
LAURINBURG     FAIR      59  58  96 W7        29.74S
$$

NCZ011-015-027-028-043-044-047-080-103-230700-
NORTHEASTERN NORTH CAROLINA

CITY           SKY/WX    TMP DP  RH WIND       PRES   REMARKS
ROCKY MT-WILSO FAIR      58  54  86 SW6       29.67F
GREENVILLE     FAIR      64  55  72 W5        29.70S
WASHINGTON     MOCLDY    67  57  71 W6        29.67S
ELIZABETH CITY FAIR      60  54  80 SW8       29.63S
MANTEO         CLOUDY    60  54  78 CALM      29.64S
CAPE HATTERAS  LGT RAIN  61  50  67 W7        29.65F
$$

NCZ078-087-090-091-093-098-101-230700-
SOUTHEASTERN NORTH CAROLINA

CITY           SKY/WX    TMP DP  RH WIND       PRES   REMARKS
LUMBERTON      FAIR      60  58  92 W5        29.73S
GOLDSBORO      FAIR      62  57  86 SW7       29.67F
KINSTON        FAIR      65  55  70 SW6       29.69S
KENANSVILLE    FAIR      63  56  78 W7        29.71F
NEW BERN       MOCLDY    68  56  65 W7        29.68F
CHERRY POINT   MOCLDY    67  55  65 W9        29.69S
BEAUFORT       CLOUDY    62  58  86 SW12      29.68S
JACKSONVILLE   FAIR      64  59  83 W9        29.69F
WILMINGTON     FAIR      65  57  75 W7        29.72F
$$




USA.gov is the U.S. government's official web portal to all federal, state and local government web resources and services.